owner,sensor,date,latitude,longitude,vertical_datum,wind_speed,wind_to_direction,wind_speed_of_gust,qcFlag 
TABS,ioos:station:wmo:42046:1,2005-05-01T00:00:00Z,27.8903,-94.0367,4.0,9.87451771,30.01808677,13.07,'11111222,11111222,11111222' 
TABS,ioos:station:wmo:42046:1,2005-05-01T00:30:00Z,27.8903,-94.0367,4.0,9.7422482,28.643038,13.32,'11111222,11111222,11111222' 
TABS,ioos:station:wmo:42046:1,2005-05-01T01:00:00Z,27.8903,-94.0367,4.0,9.073968261,32.5338628,12.77,'11111222,11111222,11111222' 
TABS,ioos:station:wmo:42046:1,2005-05-01T01:30:00Z,27.8903,-94.0367,4.0,8.926751929,31.39277018,11.88,'11111222,11111222,11111222' 
TABS,ioos:station:wmo:42046:1,2005-05-01T02:00:00Z,27.8903,-94.0367,4.0,9.089510438,27.80523849,13.28,'11111222,11111222,11111222' 
TABS,ioos:station:wmo:42046:1,2005-05-01T02:30:00Z,27.8903,-94.0367,4.0,8.886129641,24.7478523,11.18,'11111222,11111222,11111222' 
TABS,ioos:station:wmo:42046:1,2005-05-01T03:00:00Z,27.8903,-94.0367,4.0,8.318202931,26.71879878,11.15,'11111222,11111222,11111222' 
TABS,ioos:station:wmo:42046:1,2005-05-01T03:30:00Z,27.8903,-94.0367,4.0,8.832310004,18.20904225,11.98,'11111222,11111222,11111222' 
TABS,ioos:station:wmo:42046:1,2005-05-01T04:00:00Z,27.8903,-94.0367,4.0,8.388623248,21.02744383,10.56,'11111222,11111222,11111222' 
TABS,ioos:station:wmo:42046:1,2005-05-01T04:30:00Z,27.8903,-94.0367,4.0,8.279625595,17.64687507,10.67,'11111222,11111222,11111222' 
TABS,ioos:station:wmo:42046:1,2005-05-01T05:00:00Z,27.8903,-94.0367,4.0,8.352682204,19.367484,10.24,'11111222,11111222,11111222' 
TABS,ioos:station:wmo:42046:1,2005-05-01T05:30:00Z,27.8903,-94.0367,4.0,8.175989237,15.46384525,10.75,'11111222,11111222,11111222' 
TABS,ioos:station:wmo:42046:1,2005-05-01T06:00:00Z,27.8903,-94.0367,4.0,8.299644571,16.44772865,11.4,'11111222,11111222,11111222' 
TABS,ioos:station:wmo:42046:1,2005-05-01T06:30:00Z,27.8903,-94.0367,4.0,8.446360163,15.73083791,10.5,'11111222,11111222,11111222' 
TABS,ioos:station:wmo:42046:1,2005-05-01T07:00:00Z,27.8903,-94.0367,4.0,8.408810855,17.93910782,10.75,'11111222,11111222,11111222' 
TABS,ioos:station:wmo:42046:1,2005-05-01T07:30:00Z,27.8903,-94.0367,4.0,7.57002642,22.77097679,10.01,'11111222,11111222,11111222' 
TABS,ioos:station:wmo:42046:1,2005-05-01T08:00:00Z,27.8903,-94.0367,4.0,7.331227728,25.44627479,9.89,'11111222,11111222,11111222' 
TABS,ioos:station:wmo:42046:1,2005-05-01T08:30:00Z,27.8903,-94.0367,4.0,7.332352965,28.06761431,9.82,'11111222,11111222,11111222' 
TABS,ioos:station:wmo:42046:1,2005-05-01T09:00:00Z,27.8903,-94.0367,4.0,6.898840482,29.90942109,9.02,'11111222,11111222,11111222' 
TABS,ioos:station:wmo:42046:1,2005-05-01T09:30:00Z,27.8903,-94.0367,4.0,7.597078386,37.83499704,9.73,'11111222,11111222,11111222' 
TABS,ioos:station:wmo:42046:1,2005-05-01T10:00:00Z,27.8903,-94.0367,4.0,7.768352464,37.41539777,10.62,'11111222,11111222,11111222' 
TABS,ioos:station:wmo:42046:1,2005-05-01T10:30:00Z,27.8903,-94.0367,4.0,7.252923548,30.48929495,9.8,'11111222,11111222,11111222' 
TABS,ioos:station:wmo:42046:1,2005-05-01T11:00:00Z,27.8903,-94.0367,4.0,6.763105795,32.56187192,9.11,'11111222,11111222,11111222' 
TABS,ioos:station:wmo:42046:1,2005-05-01T11:30:00Z,27.8903,-94.0367,4.0,6.053924347,30.80116349,9.53,'11111222,11111222,11111222' 
TABS,ioos:station:wmo:42046:1,2005-05-01T12:00:00Z,27.8903,-94.0367,4.0,6.253127218,43.44452844,9.62,'11111222,11111222,11111222' 
TABS,ioos:station:wmo:42046:1,2005-05-01T12:30:00Z,27.8903,-94.0367,4.0,6.287575049,38.80182117,8.16,'11111222,11111222,11111222' 
TABS,ioos:station:wmo:42046:1,2005-05-01T13:00:00Z,27.8903,-94.0367,4.0,6.194005166,36.79559953,9.25,'11111222,11111222,11111222' 
TABS,ioos:station:wmo:42046:1,2005-05-01T13:30:00Z,27.8903,-94.0367,4.0,5.366237043,31.20151748,8.81,'11111222,11111222,11111222' 
TABS,ioos:station:wmo:42046:1,2005-05-01T14:00:00Z,27.8903,-94.0367,4.0,5.226671981,28.57518726,6.93,'11111222,11111222,11111222' 
TABS,ioos:station:wmo:42046:1,2005-05-01T14:30:00Z,27.8903,-94.0367,4.0,4.614693923,22.28532507,6.58,'11111222,11111222,11111222' 
TABS,ioos:station:wmo:42046:1,2005-05-01T15:00:00Z,27.8903,-94.0367,4.0,4.081004778,23.23519559,6.2,'11111222,11111222,11111222' 
TABS,ioos:station:wmo:42046:1,2005-05-01T15:30:00Z,27.8903,-94.0367,4.0,3.310589071,28.11293268,4.99,'11111222,11111222,11111222' 
TABS,ioos:station:wmo:42046:1,2005-05-01T16:00:00Z,27.8903,-94.0367,4.0,4.192290543,9.888990454,5.82,'11111222,11111222,11111222' 
TABS,ioos:station:wmo:42046:1,2005-05-01T16:30:00Z,27.8903,-94.0367,4.0,5.480821106,22.86888634,7.38,'11111222,11111222,11111222' 
TABS,ioos:station:wmo:42046:1,2005-05-01T17:00:00Z,27.8903,-94.0367,4.0,6.76701559,28.79938766,9.34,'11111222,11111222,11111222' 
TABS,ioos:station:wmo:42046:1,2005-05-01T17:30:00Z,27.8903,-94.0367,4.0,7.112278116,38.31981387,9.34,'11111222,11111222,11111222' 
TABS,ioos:station:wmo:42046:1,2005-05-01T18:00:00Z,27.8903,-94.0367,4.0,6.724499981,39.75072107,8.76,'11111222,11111222,11111222' 
TABS,ioos:station:wmo:42046:1,2005-05-01T18:30:00Z,27.8903,-94.0367,4.0,7.246585403,40.74677938,9.52,'11111222,11111222,11111222' 
TABS,ioos:station:wmo:42046:1,2005-05-01T19:00:00Z,27.8903,-94.0367,4.0,7.004484278,43.03272815,10.08,'11111222,11111222,11111222' 
TABS,ioos:station:wmo:42046:1,2005-05-01T19:30:00Z,27.8903,-94.0367,4.0,7.223911683,50.44797944,9.4,'11111222,11111222,11111222' 
TABS,ioos:station:wmo:42046:1,2005-05-01T20:00:00Z,27.8903,-94.0367,4.0,7.077775074,60.82710228,9.49,'11111222,11111222,11111222' 
TABS,ioos:station:wmo:42046:1,2005-05-01T20:30:00Z,27.8903,-94.0367,4.0,6.763785922,64.79851437,8.6,'11111222,11111222,11111222' 
TABS,ioos:station:wmo:42046:1,2005-05-01T21:00:00Z,27.8903,-94.0367,4.0,6.953078455,67.41779931,8.72,'11111222,11111222,11111222' 
TABS,ioos:station:wmo:42046:1,2005-05-01T21:30:00Z,27.8903,-94.0367,4.0,6.573073862,61.56310409,8.01,'11111222,11111222,11111222' 
TABS,ioos:station:wmo:42046:1,2005-05-01T22:00:00Z,27.8903,-94.0367,4.0,6.061699432,69.83078353,8.08,'11111222,11111222,11111222' 
TABS,ioos:station:wmo:42046:1,2005-05-01T22:30:00Z,27.8903,-94.0367,4.0,6.309239257,70.8467204,8.68,'11111222,11111222,11111222' 
TABS,ioos:station:wmo:42046:1,2005-05-01T23:00:00Z,27.8903,-94.0367,4.0,6.497645727,68.60758519,8.51,'11111222,11111222,11111222' 
TABS,ioos:station:wmo:42046:1,2005-05-01T23:30:00Z,27.8903,-94.0367,4.0,6.766779145,76.14819246,8.76,'11111222,11111222,11111222' 
TABS,ioos:station:wmo:42046:1,2005-05-02T00:00:00Z,27.8903,-94.0367,4.0,6.790647981,70.470665,9.41,'11111222,11111222,11111222' 
TABS,ioos:station:wmo:42046:1,2005-05-02T00:30:00Z,27.8903,-94.0367,4.0,5.93155123,67.49865291,8.04,'11111222,11111222,11111222' 
TABS,ioos:station:wmo:42046:1,2005-05-02T01:00:00Z,27.8903,-94.0367,4.0,6.289117585,75.54354669,8.41,'11111222,11111222,11111222' 
TABS,ioos:station:wmo:42046:1,2005-05-02T01:30:00Z,27.8903,-94.0367,4.0,5.85806282,78.97739567,8.05,'11111222,11111222,11111222' 
TABS,ioos:station:wmo:42046:1,2005-05-02T02:00:00Z,27.8903,-94.0367,4.0,5.887962296,82.6814623,7.84,'11111222,11111222,11111222' 
TABS,ioos:station:wmo:42046:1,2005-05-02T02:30:00Z,27.8903,-94.0367,4.0,5.822233249,83.09428893,7.8,'11111222,11111222,11111222' 
TABS,ioos:station:wmo:42046:1,2005-05-02T03:00:00Z,27.8903,-94.0367,4.0,5.850213671,89.50988463,8.44,'11111222,11111222,11111222' 
TABS,ioos:station:wmo:42046:1,2005-05-02T03:30:00Z,27.8903,-94.0367,4.0,5.515142791,79.34165795,7.2,'11111222,11111222,11111222' 
TABS,ioos:station:wmo:42046:1,2005-05-02T04:00:00Z,27.8903,-94.0367,4.0,5.252237618,79.24592398,7.48,'11111222,11111222,11111222' 
TABS,ioos:station:wmo:42046:1,2005-05-02T04:30:00Z,27.8903,-94.0367,4.0,5.160561985,86.3332201,6.93,'11111222,11111222,11111222' 
TABS,ioos:station:wmo:42046:1,2005-05-02T05:00:00Z,27.8903,-94.0367,4.0,4.704572244,85.48879616,6.61,'11111222,11111222,11111222' 
TABS,ioos:station:wmo:42046:1,2005-05-02T05:30:00Z,27.8903,-94.0367,4.0,4.455434883,87.16928974,6.12,'11111222,11111222,11111222' 
TABS,ioos:station:wmo:42046:1,2005-05-02T06:00:00Z,27.8903,-94.0367,4.0,4.641745361,85.92276628,6.58,'11111222,11111222,11111222' 
TABS,ioos:station:wmo:42046:1,2005-05-02T06:30:00Z,27.8903,-94.0367,4.0,4.205948169,98.47727932,6.06,'11111222,11111222,11111222' 
TABS,ioos:station:wmo:42046:1,2005-05-02T07:00:00Z,27.8903,-94.0367,4.0,4.491603277,84.37784936,6.23,'11111222,11111222,11111222' 
TABS,ioos:station:wmo:42046:1,2005-05-02T07:30:00Z,27.8903,-94.0367,4.0,4.521172414,96.73245252,6.36,'11111222,11111222,11111222' 
TABS,ioos:station:wmo:42046:1,2005-05-02T08:00:00Z,27.8903,-94.0367,4.0,4.351149273,88.68266976,6.15,'11111222,11111222,11111222' 
TABS,ioos:station:wmo:42046:1,2005-05-02T08:30:00Z,27.8903,-94.0367,4.0,3.531401988,75.56986058,5.64,'11111222,11111222,11111222' 
TABS,ioos:station:wmo:42046:1,2005-05-02T09:00:00Z,27.8903,-94.0367,4.0,4.420101809,90.38929942,6.09,'11111222,11111222,11111222' 
TABS,ioos:station:wmo:42046:1,2005-05-02T09:30:00Z,27.8903,-94.0367,4.0,3.958850843,80.9893532,5.74,'11111222,11111222,11111222' 
TABS,ioos:station:wmo:42046:1,2005-05-02T10:00:00Z,27.8903,-94.0367,4.0,4.265501143,68.54742785,6.08,'11111222,11111222,11111222' 
TABS,ioos:station:wmo:42046:1,2005-05-02T10:30:00Z,27.8903,-94.0367,4.0,4.394200724,74.28705551,6.76,'11111222,11111222,11111222' 
TABS,ioos:station:wmo:42046:1,2005-05-02T11:00:00Z,27.8903,-94.0367,4.0,4.143235451,74.89003929,5.89,'11111222,11111222,11111222' 
TABS,ioos:station:wmo:42046:1,2005-05-02T11:30:00Z,27.8903,-94.0367,4.0,4.203153578,77.914371,5.76,'11111222,11111222,11111222' 
TABS,ioos:station:wmo:42046:1,2005-05-02T12:00:00Z,27.8903,-94.0367,4.0,5.130243659,89.44115967,6.99,'11111222,11111222,11111222' 
TABS,ioos:station:wmo:42046:1,2005-05-02T12:30:00Z,27.8903,-94.0367,4.0,5.043966693,92.27286534,7.37,'11111222,11111222,11111222' 
TABS,ioos:station:wmo:42046:1,2005-05-02T13:00:00Z,27.8903,-94.0367,4.0,5.457700981,97.58117181,7.31,'11111222,11111222,11111222' 
TABS,ioos:station:wmo:42046:1,2005-05-02T13:30:00Z,27.8903,-94.0367,4.0,4.456601844,82.65133003,6.42,'11111222,11111222,11111222' 
TABS,ioos:station:wmo:42046:1,2005-05-02T14:00:00Z,27.8903,-94.0367,4.0,4.873817805,72.56845283,6.61,'11111222,11111222,11111222' 
TABS,ioos:station:wmo:42046:1,2005-05-02T14:30:00Z,27.8903,-94.0367,4.0,4.918739676,76.35889422,7.68,'11111222,11111222,11111222' 
TABS,ioos:station:wmo:42046:1,2005-05-02T15:00:00Z,27.8903,-94.0367,4.0,4.797103293,79.06445525,6.79,'11111222,11111222,11111222' 
TABS,ioos:station:wmo:42046:1,2005-05-02T15:30:00Z,27.8903,-94.0367,4.0,4.912534987,84.50949999,6.51,'11111222,11111222,11111222' 
TABS,ioos:station:wmo:42046:1,2005-05-02T16:00:00Z,27.8903,-94.0367,4.0,5.598589108,86.82543317,7.5,'11111222,11111222,11111222' 
TABS,ioos:station:wmo:42046:1,2005-05-02T16:30:00Z,27.8903,-94.0367,4.0,6.453836069,84.12999237,7.81,'11111222,11111222,11111222' 
TABS,ioos:station:wmo:42046:1,2005-05-02T17:00:00Z,27.8903,-94.0367,4.0,6.020847116,78.98827958,7.78,'11111222,11111222,11111222' 
TABS,ioos:station:wmo:42046:1,2005-05-02T17:30:00Z,27.8903,-94.0367,4.0,6.280103502,80.28230006,8.0,'11111222,11111222,11111222' 
TABS,ioos:station:wmo:42046:1,2005-05-02T18:00:00Z,27.8903,-94.0367,4.0,5.910972847,78.87977072,7.49,'11111222,11111222,11111222' 
TABS,ioos:station:wmo:42046:1,2005-05-02T18:30:00Z,27.8903,-94.0367,4.0,6.22675678,71.07000512,8.6,'11111222,11111222,11111222' 
TABS,ioos:station:wmo:42046:1,2005-05-02T19:00:00Z,27.8903,-94.0367,4.0,5.978360979,79.59189211,7.8,'11111222,11111222,11111222' 
TABS,ioos:station:wmo:42046:1,2005-05-02T19:30:00Z,27.8903,-94.0367,4.0,6.115725632,73.37216167,8.06,'11111222,11111222,11111222' 
TABS,ioos:station:wmo:42046:1,2005-05-02T20:00:00Z,27.8903,-94.0367,4.0,5.823160654,64.13864854,8.07,'11111222,11111222,11111222' 
TABS,ioos:station:wmo:42046:1,2005-05-02T20:30:00Z,27.8903,-94.0367,4.0,5.489162049,68.29513464,7.11,'11111222,11111222,11111222' 
TABS,ioos:station:wmo:42046:1,2005-05-02T21:00:00Z,27.8903,-94.0367,4.0,5.920878313,70.46296983,7.74,'11111222,11111222,11111222' 
TABS,ioos:station:wmo:42046:1,2005-05-02T21:30:00Z,27.8903,-94.0367,4.0,5.463259101,67.84767376,7.56,'11111222,11111222,11111222' 
TABS,ioos:station:wmo:42046:1,2005-05-02T22:00:00Z,27.8903,-94.0367,4.0,5.787054518,71.25158553,8.27,'11111222,11111222,11111222' 
TABS,ioos:station:wmo:42046:1,2005-05-02T22:30:00Z,27.8903,-94.0367,4.0,5.982507835,66.34832106,7.77,'11111222,11111222,11111222' 
TABS,ioos:station:wmo:42046:1,2005-05-02T23:00:00Z,27.8903,-94.0367,4.0,6.242635661,65.48731867,8.48,'11111222,11111222,11111222' 
TABS,ioos:station:wmo:42046:1,2005-05-02T23:30:00Z,27.8903,-94.0367,4.0,5.934610349,61.18885271,7.75,'11111222,11111222,11111222' 
TABS,ioos:station:wmo:42046:1,2005-05-03T00:00:00Z,27.8903,-94.0367,4.0,5.831312031,65.58820808,7.93,'11111222,11111222,11111222' 
TABS,ioos:station:wmo:42046:1,2005-05-03T00:30:00Z,27.8903,-94.0367,4.0,5.639042472,69.44358193,7.74,'11111222,11111222,11111222' 
TABS,ioos:station:wmo:42046:1,2005-05-03T01:00:00Z,27.8903,-94.0367,4.0,5.725906042,73.14702359,8.01,'11111222,11111222,11111222' 
TABS,ioos:station:wmo:42046:1,2005-05-03T01:30:00Z,27.8903,-94.0367,4.0,5.513347441,75.18199805,7.92,'11111222,11111222,11111222' 
TABS,ioos:station:wmo:42046:1,2005-05-03T02:00:00Z,27.8903,-94.0367,4.0,6.077639344,78.70816149,7.82,'11111222,11111222,11111222' 
TABS,ioos:station:wmo:42046:1,2005-05-03T02:30:00Z,27.8903,-94.0367,4.0,5.852760033,80.95572291,7.67,'11111222,11111222,11111222' 
TABS,ioos:station:wmo:42046:1,2005-05-03T03:00:00Z,27.8903,-94.0367,4.0,5.75633564,84.5167941,7.75,'11111222,11111222,11111222' 
TABS,ioos:station:wmo:42046:1,2005-05-03T03:30:00Z,27.8903,-94.0367,4.0,6.659444421,83.0133095,8.79,'11111222,11111222,11111222' 
TABS,ioos:station:wmo:42046:1,2005-05-03T04:00:00Z,27.8903,-94.0367,4.0,6.585089217,82.58319324,8.8,'11111222,11111222,11111222' 
TABS,ioos:station:wmo:42046:1,2005-05-03T04:30:00Z,27.8903,-94.0367,4.0,6.22945423,96.45232471,8.32,'11111222,11111222,11111222' 
TABS,ioos:station:wmo:42046:1,2005-05-03T05:00:00Z,27.8903,-94.0367,4.0,6.504805916,92.20301393,9.69,'11111222,11111222,11111222' 
TABS,ioos:station:wmo:42046:1,2005-05-03T05:30:00Z,27.8903,-94.0367,4.0,6.230971032,88.98804358,8.05,'11111222,11111222,11111222' 
TABS,ioos:station:wmo:42046:1,2005-05-03T06:00:00Z,27.8903,-94.0367,4.0,6.421121397,91.07124287,8.45,'11111222,11111222,11111222' 
TABS,ioos:station:wmo:42046:1,2005-05-03T06:30:00Z,27.8903,-94.0367,4.0,6.629781294,86.88686974,8.35,'11111222,11111222,11111222' 
TABS,ioos:station:wmo:42046:1,2005-05-03T07:00:00Z,27.8903,-94.0367,4.0,6.673866945,86.30543809,8.9,'11111222,11111222,11111222' 
TABS,ioos:station:wmo:42046:1,2005-05-03T07:30:00Z,27.8903,-94.0367,4.0,6.213541663,86.21618207,8.09,'11111222,11111222,11111222' 
TABS,ioos:station:wmo:42046:1,2005-05-03T08:00:00Z,27.8903,-94.0367,4.0,5.991009932,91.05247646,8.11,'11111222,11111222,11111222' 
TABS,ioos:station:wmo:42046:1,2005-05-03T08:30:00Z,27.8903,-94.0367,4.0,6.09000821,90.09450235,7.95,'11111222,11111222,11111222' 
TABS,ioos:station:wmo:42046:1,2005-05-03T09:00:00Z,27.8903,-94.0367,4.0,4.975309036,94.49627207,6.56,'11111222,11111222,11111222' 
TABS,ioos:station:wmo:42046:1,2005-05-03T09:30:00Z,27.8903,-94.0367,4.0,4.456467211,93.08753228,6.1,'11111222,11111222,11111222' 
TABS,ioos:station:wmo:42046:1,2005-05-03T10:00:00Z,27.8903,-94.0367,4.0,4.662413538,85.81766203,6.49,'11111222,11111222,11111222' 
TABS,ioos:station:wmo:42046:1,2005-05-03T10:30:00Z,27.8903,-94.0367,4.0,5.241717276,82.7661164,7.52,'11111222,11111222,11111222' 
TABS,ioos:station:wmo:42046:1,2005-05-03T11:00:00Z,27.8903,-94.0367,4.0,5.775716406,79.02040825,7.74,'11111222,11111222,11111222' 
TABS,ioos:station:wmo:42046:1,2005-05-03T11:30:00Z,27.8903,-94.0367,4.0,6.164560001,69.38919079,8.42,'11111222,11111222,11111222' 
TABS,ioos:station:wmo:42046:1,2005-05-03T12:00:00Z,27.8903,-94.0367,4.0,6.365288682,58.032436,8.24,'11111222,11111222,11111222' 
TABS,ioos:station:wmo:42046:1,2005-05-03T12:30:00Z,27.8903,-94.0367,4.0,6.858228634,53.59761321,9.84,'11111222,11111222,11111222' 
TABS,ioos:station:wmo:42046:1,2005-05-03T13:00:00Z,27.8903,-94.0367,4.0,6.762396025,60.4018945,9.6,'11111222,11111222,11111222' 
TABS,ioos:station:wmo:42046:1,2005-05-03T13:30:00Z,27.8903,-94.0367,4.0,6.813237116,60.16089144,8.63,'11111222,11111222,11111222' 
TABS,ioos:station:wmo:42046:1,2005-05-03T14:00:00Z,27.8903,-94.0367,4.0,6.616350958,69.56520704,8.66,'11111222,11111222,11111222' 
TABS,ioos:station:wmo:42046:1,2005-05-03T14:30:00Z,27.8903,-94.0367,4.0,7.148286508,80.9853039,9.32,'11111222,11111222,11111222' 
TABS,ioos:station:wmo:42046:1,2005-05-03T15:00:00Z,27.8903,-94.0367,4.0,6.729710246,83.77222574,8.78,'11111222,11111222,11111222' 
TABS,ioos:station:wmo:42046:1,2005-05-03T15:30:00Z,27.8903,-94.0367,4.0,6.633988242,79.84152965,9.48,'11111222,11111222,11111222' 
TABS,ioos:station:wmo:42046:1,2005-05-03T16:00:00Z,27.8903,-94.0367,4.0,7.163078947,69.0597443,9.36,'11111222,11111222,11111222' 
TABS,ioos:station:wmo:42046:1,2005-05-03T16:30:00Z,27.8903,-94.0367,4.0,7.162080703,69.99601506,8.78,'11111222,11111222,11111222' 
TABS,ioos:station:wmo:42046:1,2005-05-03T17:00:00Z,27.8903,-94.0367,4.0,6.915901966,71.53847509,8.7,'11111222,11111222,11111222' 
TABS,ioos:station:wmo:42046:1,2005-05-03T17:30:00Z,27.8903,-94.0367,4.0,6.789499245,71.27112582,8.67,'11111222,11111222,11111222' 
TABS,ioos:station:wmo:42046:1,2005-05-03T18:00:00Z,27.8903,-94.0367,4.0,7.445139354,77.19534296,9.48,'11111222,11111222,11111222' 
TABS,ioos:station:wmo:42046:1,2005-05-03T18:30:00Z,27.8903,-94.0367,4.0,7.323557879,73.17298384,9.6,'11111222,11111222,11111222' 
TABS,ioos:station:wmo:42046:1,2005-05-03T19:00:00Z,27.8903,-94.0367,4.0,7.733130026,69.00999217,10.02,'11111222,11111222,11111222' 
TABS,ioos:station:wmo:42046:1,2005-05-03T19:30:00Z,27.8903,-94.0367,4.0,7.785961726,70.95962406,10.39,'11111222,11111222,11111222' 
TABS,ioos:station:wmo:42046:1,2005-05-03T20:00:00Z,27.8903,-94.0367,4.0,7.96247449,76.12043804,10.38,'11111222,11111222,11111222' 
TABS,ioos:station:wmo:42046:1,2005-05-03T20:30:00Z,27.8903,-94.0367,4.0,7.503825691,81.95588187,9.77,'11111222,11111222,11111222' 
TABS,ioos:station:wmo:42046:1,2005-05-03T21:00:00Z,27.8903,-94.0367,4.0,7.08133462,82.45307411,9.31,'11111222,11111222,11111222' 
TABS,ioos:station:wmo:42046:1,2005-05-03T21:30:00Z,27.8903,-94.0367,4.0,6.840950226,84.54734882,8.66,'11111222,11111222,11111222' 
TABS,ioos:station:wmo:42046:1,2005-05-03T22:00:00Z,27.8903,-94.0367,4.0,6.802499541,82.22684441,8.55,'11111222,11111222,11111222' 
TABS,ioos:station:wmo:42046:1,2005-05-03T22:30:00Z,27.8903,-94.0367,4.0,6.708621319,75.67337126,9.11,'11111222,11111222,11111222' 
TABS,ioos:station:wmo:42046:1,2005-05-03T23:00:00Z,27.8903,-94.0367,4.0,6.828206207,69.60071735,8.92,'11111222,11111222,11111222' 
TABS,ioos:station:wmo:42046:1,2005-05-03T23:30:00Z,27.8903,-94.0367,4.0,7.116965646,67.1815987,9.11,'11111222,11111222,11111222' 
TABS,ioos:station:wmo:42046:1,2005-05-04T00:00:00Z,27.8903,-94.0367,4.0,7.50810229,66.78100237,9.2,'11111222,11111222,11111222' 
TABS,ioos:station:wmo:42046:1,2005-05-04T00:30:00Z,27.8903,-94.0367,4.0,7.783315489,69.70205677,10.3,'11111222,11111222,11111222' 
TABS,ioos:station:wmo:42046:1,2005-05-04T01:00:00Z,27.8903,-94.0367,4.0,7.994979675,73.35528764,10.25,'11111222,11111222,11111222' 
TABS,ioos:station:wmo:42046:1,2005-05-04T01:30:00Z,27.8903,-94.0367,4.0,8.153539109,70.58687521,10.34,'11111222,11111222,11111222' 
TABS,ioos:station:wmo:42046:1,2005-05-04T02:00:00Z,27.8903,-94.0367,4.0,8.280247581,82.01628187,11.2,'11111222,11111222,11111222' 
TABS,ioos:station:wmo:42046:1,2005-05-04T02:30:00Z,27.8903,-94.0367,4.0,8.724494255,84.21058377,11.17,'11111222,11111222,11111222' 
TABS,ioos:station:wmo:42046:1,2005-05-04T03:00:00Z,27.8903,-94.0367,4.0,8.94150994,85.18805583,11.85,'11111222,11111222,11111222' 
TABS,ioos:station:wmo:42046:1,2005-05-04T03:30:00Z,27.8903,-94.0367,4.0,8.789385644,83.33545737,11.41,'11111222,11111222,11111222' 
TABS,ioos:station:wmo:42046:1,2005-05-04T04:00:00Z,27.8903,-94.0367,4.0,8.125244612,85.48190135,10.83,'11111222,11111222,11111222' 
TABS,ioos:station:wmo:42046:1,2005-05-04T04:30:00Z,27.8903,-94.0367,4.0,8.331536473,88.89919779,10.87,'11111222,11111222,11111222' 
TABS,ioos:station:wmo:42046:1,2005-05-04T05:00:00Z,27.8903,-94.0367,4.0,8.396118151,86.44879348,11.16,'11111222,11111222,11111222' 
TABS,ioos:station:wmo:42046:1,2005-05-04T05:30:00Z,27.8903,-94.0367,4.0,8.404665371,91.90956889,11.31,'11111222,11111222,11111222' 
TABS,ioos:station:wmo:42046:1,2005-05-04T06:00:00Z,27.8903,-94.0367,4.0,8.595743133,93.46864207,10.76,'11111222,11111222,11111222' 
TABS,ioos:station:wmo:42046:1,2005-05-04T06:30:00Z,27.8903,-94.0367,4.0,7.656278469,92.32093563,10.11,'11111222,11111222,11111222' 
TABS,ioos:station:wmo:42046:1,2005-05-04T07:00:00Z,27.8903,-94.0367,4.0,7.701272622,91.04204516,10.17,'11111222,11111222,11111222' 
TABS,ioos:station:wmo:42046:1,2005-05-04T07:30:00Z,27.8903,-94.0367,4.0,7.445871339,84.37322376,10.32,'11111222,11111222,11111222' 
TABS,ioos:station:wmo:42046:1,2005-05-04T08:00:00Z,27.8903,-94.0367,4.0,7.74836757,87.33658454,10.18,'11111222,11111222,11111222' 
TABS,ioos:station:wmo:42046:1,2005-05-04T08:30:00Z,27.8903,-94.0367,4.0,7.495365235,79.93405694,9.67,'11111222,11111222,11111222' 
TABS,ioos:station:wmo:42046:1,2005-05-04T09:00:00Z,27.8903,-94.0367,4.0,6.76993353,73.1706726,8.75,'11111222,11111222,11111222' 
TABS,ioos:station:wmo:42046:1,2005-05-04T09:30:00Z,27.8903,-94.0367,4.0,6.785315026,73.03347065,9.51,'11111222,11111222,11111222' 
TABS,ioos:station:wmo:42046:1,2005-05-04T10:00:00Z,27.8903,-94.0367,4.0,6.68303075,70.50727797,9.61,'11111222,11111222,11111222' 
TABS,ioos:station:wmo:42046:1,2005-05-04T10:30:00Z,27.8903,-94.0367,4.0,7.606313167,75.37873928,10.3,'11111222,11111222,11111222' 
TABS,ioos:station:wmo:42046:1,2005-05-04T11:00:00Z,27.8903,-94.0367,4.0,6.563269003,70.32231194,8.8,'11111222,11111222,11111222' 
TABS,ioos:station:wmo:42046:1,2005-05-04T11:30:00Z,27.8903,-94.0367,4.0,6.950115107,67.05001156,8.99,'11111222,11111222,11111222' 
TABS,ioos:station:wmo:42046:1,2005-05-04T12:00:00Z,27.8903,-94.0367,4.0,7.710285338,68.62599804,10.29,'11111222,11111222,11111222' 
TABS,ioos:station:wmo:42046:1,2005-05-04T12:30:00Z,27.8903,-94.0367,4.0,6.994261934,48.767513,9.52,'11111222,11111222,11111222' 
TABS,ioos:station:wmo:42046:1,2005-05-04T13:00:00Z,27.8903,-94.0367,4.0,7.273857299,50.46640714,9.86,'11111222,11111222,11111222' 
TABS,ioos:station:wmo:42046:1,2005-05-04T13:30:00Z,27.8903,-94.0367,4.0,7.287647083,47.00143571,10.51,'11111222,11111222,11111222' 
TABS,ioos:station:wmo:42046:1,2005-05-04T14:00:00Z,27.8903,-94.0367,4.0,7.507063341,57.62212124,10.45,'11111222,11111222,11111222' 
TABS,ioos:station:wmo:42046:1,2005-05-04T14:30:00Z,27.8903,-94.0367,4.0,7.899778478,68.69654813,10.34,'11111222,11111222,11111222' 
TABS,ioos:station:wmo:42046:1,2005-05-04T15:00:00Z,27.8903,-94.0367,4.0,7.638880808,79.05741926,10.32,'11111222,11111222,11111222' 
TABS,ioos:station:wmo:42046:1,2005-05-04T15:30:00Z,27.8903,-94.0367,4.0,7.513853871,75.6674607,9.94,'11111222,11111222,11111222' 
TABS,ioos:station:wmo:42046:1,2005-05-04T16:00:00Z,27.8903,-94.0367,4.0,7.387611251,70.87794338,10.23,'11111222,11111222,11111222' 
TABS,ioos:station:wmo:42046:1,2005-05-04T16:30:00Z,27.8903,-94.0367,4.0,7.800410246,62.51478483,10.08,'11111222,11111222,11111222' 
TABS,ioos:station:wmo:42046:1,2005-05-04T17:00:00Z,27.8903,-94.0367,4.0,7.501386539,58.8525076,10.03,'11111222,11111222,11111222' 
TABS,ioos:station:wmo:42046:1,2005-05-04T17:30:00Z,27.8903,-94.0367,4.0,8.01087386,62.41099115,10.79,'11111222,11111222,11111222' 
TABS,ioos:station:wmo:42046:1,2005-05-04T18:00:00Z,27.8903,-94.0367,4.0,7.981058827,60.99385264,10.08,'11111222,11111222,11111222' 
TABS,ioos:station:wmo:42046:1,2005-05-04T18:30:00Z,27.8903,-94.0367,4.0,8.221344172,57.97210892,10.98,'11111222,11111222,11111222' 